Terminal Aerodrome Forecast
Issued by NWS

Home | Current Version | Previous Version | Graphics & Text | Print | Product List | Glossary On
Versions: 1 2 3 4 5 6 7 8 9 10 11 12 13 14 15 16 17 18 19 20 21 22 23 24 25 26 27 28 29 30 31 32 33
172
FTUS43 KABR 171121
TAFMBG
TAF
KMBG 171121Z 1712/1812 31006KT P6SM BKN090
     FM171700 32012KT P6SM SCT250
     FM180200 16004KT P6SM BKN140
     FM180700 12012KT P6SM VCSH OVC060 WS020/17040KT=

USA.gov is the U.S. government's official web portal to all federal, state and local government web resources and services.